Location: Geçitköy
(36.7327°N, 29.8010°E)
Time: 20:09:25
(UTC+00:00)

Resurs 1-3 - Pass Details

Date: 12 January 2026
Orbit: 613 x 615 km, 97.7° (Epoch: 11 February)

Event Time Altitude Azimuth Distance (km) Brightness Sun altitude
Rises 16:41:19 0° 173° (S) 2,869 7.1 -18.9°
Reaches altitude 10° 16:43:30 10° 176° (S) 1,968 6.2 -19.3°
Maximum altitude 16:47:45 67° 259° (WSW) 668 3.9 -20.2°
Drops below altitude 10° 16:52:03 10° 342° (NNW) 1,982 6.2 -21.0°
Sets 16:54:15 0° 345° (NNW) 2,891 7.0 -21.4°
